EW5414 Weather Reports


time (UTC)temp
F
wind
direction
speed
knots
gust
knots
rain 1hr
in
rain 24hr
in
rain mn
in
humidity
%
barometer
mb
20260507203013 47 301 0.0 0.0 0.00 0.05 0.05 85 1015.8
20260507201515 47 301 0.0 0.0 0.00 0.05 0.05 85 1015.7
20260507200023 47 301 0.0 0.0 0.00 0.05 0.05 85 1015.5
20260507194521 47 301 0.0 0.0 0.00 0.06 0.05 85 1015.4
20260507193033 47 301 0.0 0.0 0.00 0.07 0.05 84 1015.1
20260507191530 48 301 0.0 0.0 0.00 0.07 0.05 82 1015.0
20260507190011 49 301 0.0 0.0 0.00 0.07 0.05 80 1015.0
20260507184515 50 301 0.0 0.0 0.00 0.07 0.05 79 1014.9
20260507183034 50 292 0.0 0.0 0.00 0.07 0.05 78 1014.9
20260507181525 51 302 0.0 0.9 0.00 0.07 0.05 76 1014.6
20260507180025 53 291 0.0 5.2 0.00 0.07 0.05 74 1014.6
20260507174518 53 273 0.0 0.9 0.00 0.07 0.05 72 1014.6
20260507173019 54 284 0.0 0.0 0.00 0.07 0.05 71 1014.6
20260507171523 55 299 0.0 0.9 0.00 0.07 0.05 69 1014.5
20260507170025 57 288 0.0 0.9 0.00 0.07 0.05 67 1014.6
20260507164525 59 24 0.9 7.0 0.00 0.07 0.05 63 1014.6
20260507163016 59 310 0.0 7.0 0.00 0.07 0.05 64 1014.8
20260507161520 59 296 0.0 9.6 0.00 0.07 0.05 65 1014.8
20260507160040 59 254 0.0 9.6 0.00 0.07 0.05 62 1014.6
20260507154526 60 324 0.0 10.4 0.00 0.07 0.05 65 1014.6
20260507153027 60 240 0.9 10.4 0.00 0.07 0.05 63 1014.6
20260507151518 58 217 0.0 1.7 0.00 0.07 0.05 65 1014.8
20260507150022 59 283 1.7 10.4 0.00 0.07 0.05 64 1014.8
20260507144540 58 253 0.0 0.9 0.00 0.07 0.05 67 1014.9
20260507143008 55 273 1.7 8.7 0.00 0.07 0.05 72 1015.0
20260507141522 55 346 0.0 0.9 0.00 0.07 0.05 75 1015.0
20260507140022 56 32 0.0 8.7 0.00 0.07 0.05 73 1015.1
20260507134524 56 258 0.0 0.9 0.00 0.07 0.05 77 1015.2
20260507133024 57 344 0.0 0.0 0.00 0.07 0.05 78 1015.3
20260507131511 55 259 0.0 0.0 0.00 0.07 0.05 89 1015.4
20260507130028 52 258 0.0 0.0 0.00 0.07 0.05 83 1015.4
20260507124522 53 258 0.0 7.0 0.00 0.07 0.04 78 1015.4
20260507123032 55 254 0.0 0.0 0.00 0.07 0.04 74 1015.5
20260507121528 56 182 0.0 0.0 0.00 0.07 0.04 71 1015.3
20260507120027 57 293 0.0 0.0 0.00 0.07 0.04 80 1015.4
20260507114517 53 294 0.0 0.9 0.00 0.07 0.04 81 1015.4
20260507113004 53 243 0.9 7.0 0.00 0.07 0.04 76 1015.5
20260507111510 57 279 0.0 0.9 0.00 0.07 0.04 76 1015.5
20260507110012 55 198 0.0 0.0 0.00 0.07 0.04 83 1015.4
20260507104516 53 74 0.0 0.0 0.04 0.07 0.04 74 1015.5
20260507103022 51 281 0.0 0.0 0.04 0.07 0.04 84 1015.4
20260507101508 50 281 0.0 0.0 0.04 0.08 0.04 84 1015.4
20260507100010 50 281 0.0 2.6 0.03 0.08 0.03 80 1015.6
20260507094512 55 309 0.0 0.0 0.00 0.05 0.00 76 1015.6
20260507093020 57 183 0.0 0.0 0.00 0.09 0.00 79 1015.4
20260507091523 53 286 0.0 0.0 0.00 0.11 0.00 82 1015.3
20260507090005 52 286 0.0 0.0 0.00 0.14 0.00 84 1015.3
20260507084514 52 286 0.0 0.0 0.00 0.16 0.00 82 1015.3
20260507083021 54 187 0.0 0.0 0.00 0.19 0.00 74 1015.3
20260507081530 56 203 0.0 0.0 0.00 0.23 0.00 73 1015.2
20260507080025 52 286 0.0 0.0 0.00 0.27 0.00 77 1015.1
20260507074507 53 286 0.0 0.0 0.00 0.30 0.00 82 1015.1
20260507073014 50 286 0.0 0.0 0.00 0.33 0.00 85 1015.1
20260507071518 49 211 0.0 0.0 0.00 0.37 0.00 86 1015.2
20260507070024 49 173 0.0 0.0 0.00 0.43 0.00 85 1015.0
20260507064524 49 216 0.0 0.0 0.00 0.46 0.00 84 1014.9
20260507063011 51 153 0.0 0.0 0.00 0.48 0.00 84 1014.8
20260507061512 49 168 0.0 0.0 0.00 0.49 0.00 87 1014.8
20260507060018 47 226 0.0 0.0 0.00 0.49 0.00 88 1014.6
20260507054522 46 267 0.0 0.0 0.00 0.49 0.00 88 1014.6
20260507053026 45 235 0.0 0.0 0.00 0.49 0.00 87 1014.4
20260507051504 45 248 0.0 0.0 0.00 0.50 0.00 87 1014.4
20260507050008 45 248 0.0 0.0 0.00 0.50 0.00 86 1014.2
20260507044504 45 241 0.0 0.0 0.00 0.50 0.00 86 1014.2
20260507043005 45 173 0.0 0.0 0.00 0.50 0.00 86 1014.0
20260507041516 45 267 0.0 0.0 0.00 0.50 0.00 86 1013.9
20260507040004 45 297 0.0 0.0 0.00 0.50 0.00 87 1013.8
20260507034512 45 278 0.0 0.0 0.00 0.50 0.00 86 1013.8
20260507033006 45 280 0.0 0.0 0.00 0.50 0.00 87 1013.8
20260507031508 45 291 0.0 0.0 0.00 0.50 0.00 87 1013.7
20260507030007 44 289 0.0 0.0 0.00 0.50 0.00 87 1013.7
20260507024509 44 288 0.0 0.0 0.00 0.50 0.00 87 1013.8
20260507023009 44 282 0.0 0.9 0.00 0.50 0.00 87 1013.9
20260507021504 44 292 0.0 0.0 0.00 0.50 0.00 87 1013.8
20260507020009 44 279 0.0 0.0 0.00 0.50 0.00 88 1013.7
20260507014516 43 302 0.0 0.0 0.00 0.50 0.00 87 1013.4
20260507013026 44 301 0.0 0.0 0.00 0.50 0.00 87 1013.3
20260507011521 44 301 0.0 0.0 0.00 0.50 0.00 87 1013.3
20260507010007 44 301 0.0 0.0 0.00 0.50 0.00 87 1013.5
20260507004511 44 295 0.0 0.0 0.00 0.50 0.00 87 1013.5
20260507003012 44 295 0.0 0.0 0.00 0.50 0.00 87 1013.4
20260507001509 44 295 0.0 0.0 0.00 0.50 0.00 88 1013.5
20260507000022 43 295 0.0 0.0 0.00 0.50 0.00 88 1013.5
20260506234513 43 295 0.0 0.0 0.00 0.50 0.00 88 1013.5
20260506233011 44 295 0.0 0.0 0.00 0.50 0.00 88 1013.4
20260506231515 44 296 0.0 0.0 0.00 0.50 0.00 88 1013.3
20260506230018 44 299 0.0 0.0 0.00 0.50 0.00 88 1013.3
20260506224516 44 267 0.0 0.0 0.00 0.51 0.00 88 1013.2
20260506223017 44 278 0.0 0.0 0.00 0.51 0.00 89 1013.3
20260506221511 44 278 0.0 0.0 0.00 0.51 0.00 88 1013.2
20260506220018 45 274 0.0 7.8 0.00 0.54 0.00 89 1013.2
20260506214503 45 277 2.6 7.8 0.00 0.55 0.54 89 1013.2
20260506213030 45 293 0.0 0.0 0.00 0.55 0.54 89 1013.1
20260506211512 45 300 0.0 0.0 0.00 0.55 0.54 90 1013.2
20260506210016 44 262 0.0 0.0 0.00 0.55 0.54 90 1013.2
20260506204505 44 275 0.0 8.7 0.00 0.55 0.54 89 1013.0